User: anonymous
Location: Wawayanda State Park
(41.1833°N, 74.4333°W)
Time: 08:10:15
(UTC-04:00)
Language:

RESURS DK-1 - Orbit

View from above orbital plane
View from above orbital plane
View from above satellite
View from above satellite

Ground track
Ground track

The orbit data is extracted from the following two-line orbital elements,

1 29228U 06021A   14242.11530698  .00000595  00000-0  54316-4 0  1723
2 29228 069.9373 176.4750 0002309 135.5805 339.8063 15.00772587454662
Epoch (UTC): 30 August 2014 02:46:02
Eccentricity: 0.0002309
inclination: 69.9373°
perigee height: 563 km
apogee height: 566 km
right ascension of ascending node: 176.4750°
argument of perigee: 135.5805°
revolutions per day: 15.00772587
mean anomaly at epoch: 339.8063°
orbit number at epoch: 45466

The dashed part of the orbit path shows where the satellite is in the earth's shadow,  

DLR